Satellite: CO-66
Catalog number: 32791
Epoch time:      11125.22161637
Element set:     970
Inclination:      097.8503 deg
RA of node:       189.7866 deg
Eccentricity:    0.0015414
Arg of perigee:   319.0621 deg
Mean anomaly:     040.9390 deg
Mean motion:   14.82065253 rev/day
Decay rate:      1.763e-05 rev/day^2
Epoch rev:           16314
Checksum:              304

Satellite: RS-30
Catalog number: 32953
Epoch time:      11125.72988548
Element set:     700
Inclination:      082.5042 deg
RA of node:       189.1151 deg
Eccentricity:    0.0020387
Arg of perigee:   118.1866 deg
Mean anomaly:     242.1276 deg
Mean motion:   12.43012320 rev/day
Decay rate:        1.0e-07 rev/day^2
Epoch rev:           13381
Checksum:              261

Satellite: TACSAT-3
Catalog number: 35001
Epoch time:      11125.29870189
Element set:     582
Inclination:      040.4531 deg
RA of node:       072.9951 deg
Eccentricity:    0.0024522
Arg of perigee:   251.8917 deg
Mean anomaly:     107.9228 deg
Mean motion:   15.47774442 rev/day
Decay rate:     2.5306e-04 rev/day^2
Epoch rev:           11043
Checksum:              286

Satellite: PHARMSAT
Catalog number: 35002
Epoch time:      11125.25695736
Element set:     541
Inclination:      040.4640 deg
RA of node:       070.8088 deg
Eccentricity:    0.0025463
Arg of perigee:   259.8646 deg
Mean anomaly:     099.9290 deg
Mean motion:   15.47569928 rev/day
Decay rate:     2.2041e-04 rev/day^2
Epoch rev:           11045
Checksum:              303

Satellite: HAWKSAT1
Catalog number: 35003
Epoch time:      11125.86704247
Element set:     606
Inclination:      040.4542 deg
RA of node:       044.1616 deg
Eccentricity:    0.0024023
Arg of perigee:   284.9818 deg
Mean anomaly:     074.8078 deg
Mean motion:   15.60778733 rev/day
Decay rate:     8.4815e-04 rev/day^2
Epoch rev:           11080
Checksum:              288

Satellite: CP6
Catalog number: 35004
Epoch time:      11125.85371899
Element set:     610
Inclination:      040.4566 deg
RA of node:       037.6910 deg
Eccentricity:    0.0023331
Arg of perigee:   287.1272 deg
Mean anomaly:     072.5434 deg
Mean motion:   15.65415678 rev/day
Decay rate:    1.14009e-03 rev/day^2
Epoch rev:           11086
Checksum:              287

Satellite: METEOR-M
Catalog number: 35865
Epoch time:      11125.71744284
Element set:     338
Inclination:      098.7092 deg
RA of node:       181.3881 deg
Eccentricity:    0.0002664
Arg of perigee:   135.8451 deg
Mean anomaly:     224.2904 deg
Mean motion:   14.21837794 rev/day
Decay rate:       1.76e-06 rev/day^2
Epoch rev:            8455
Checksum:              313

Satellite: RS-38
Catalog number: 35869
Epoch time:      11125.72269207
Element set:     336
Inclination:      098.7062 deg
RA of node:       181.4314 deg
Eccentricity:    0.0004876
Arg of perigee:   144.5352 deg
Mean anomaly:     215.6124 deg
Mean motion:   14.22009163 rev/day
Decay rate:       1.77e-06 rev/day^2
Epoch rev:            8456
Checksum:              299

/EX


_______________________________________________
Via the Keps mailing list courtesy of AMSAT-NA
http://amsat.org/mailman/listinfo/keps

--- ViaMAIL!/WC v1.60d
 * Origin: Chowdanet (401-724-4410) telnet://chowdanet.com  (1:323/120)